sat.trackr.live / text

‹ back to catalog

ION SCV-012

NORAD 60573 · 2024-149DK

PAYLOAD ACTIVE UNKNOWN

§ Identity

Operator
Country
IT
Launch date
2024-08-16
Launch site
AFWTR
Launch vehicle
Mass (kg)
RCS (m²)

External: N2YO · Heavens-Above · Gunter

§ Orbital elements

Epoch: 2026-05-25T03:26:29.729760Z

Period
96.33 min
Inclination
97.6780°
Eccentricity
0.0004196
Mean motion
14.94878474 rev/d
Perigee alt
579.8 km
Apogee alt
585.7 km
Semi-major
6,960.9 km
B*
1.0566e-4
RAAN
219.6488°
Arg perigee
140.4330°
Mean anomaly
219.7197°
Rev number
9,647

§ Raw data

ION SCV-0121 60573U 24149DK  26145.14339965  .00001095  00000+0  10566-3 0  99942 60573  97.6780 219.6488 0004196 140.4330 219.7197 14.94878474 96471

JSON: /api/v1/satellites/60573 · /tle

For live sub-satellite position, see the globe view (requires WebGL).

§ Visibility from observer

Set your observer location to see the next 7 days of passes ≥ 10°. The values pass through the URL so the page stays shareable.

No JS? Fill the form by hand. The geolocation button needs JavaScript.

§ Radio — SatNOGS DB

ModeDescriptionDownlinkUplink
BPSK Mode S - Transmitter 2.268 GHz
FSK AX.100 Mode 5 Mode U - FSK1k2 AX.100 401.415 MHz

2 transmitters · refreshed weekly from db.satnogs.org